{"data":{"norad_id":67895,"epoch":"2026-05-25T01:51:53.669664Z","epoch_age_seconds":78746,"freshness":"FRESH","line1":"1 67895U 26035S   26145.07770451  .00013168  00000+0  40937-3 0  9994","line2":"2 67895  97.2854  78.5884 0001726  89.9860 270.1580 15.33454131 15692","mean_motion":15.33454131,"eccentricity":0.0001726,"inclination_deg":97.2854,"raan_deg":78.5884,"arg_perigee_deg":89.986,"mean_anomaly_deg":270.158,"bstar":0.00040937,"rev_number":1569,"period_min":93.905645489438,"perigee_km":464.33479267211,"apogee_km":466.69722169018,"semimajor_km":6843.6530071811,"source":"CELESTRAK","updated_at":"2026-05-25T13:38:21.735136Z"}}